Location: Memphis Junction
(33.8007°N, 89.7968°W)
Time: 18:17:10
(UTC+00:00)

Hubble Space Telescope - Visible Passes

Search period start: 24 January 2022 00:00
Search period end: 03 February 2022 00:00
Orbit: 535 x 538 km, 28.5° (Epoch: 23 January)

Date Brightness Start Highest point End Pass type
(mag) Time Alt. Az. Time Alt. Az. Time Alt. Az.
28 Jan 3.4 01:27:54 10° S 01:28:05 10° S 01:28:05 10° S visible
29 Jan 3.0 01:15:57 10° SSW 01:17:37 15° S 01:17:37 15° S visible
30 Jan 2.6 01:04:11 10° SSW 01:07:05 19° SSE 01:07:07 19° SSE visible
31 Jan 2.4 00:52:32 10° SW 00:55:44 22° SSE 00:56:36 20° SE visible
01 Feb 2.3 00:40:59 10° SW 00:44:24 25° SSE 00:46:03 19° SE visible
01 Feb 4.0 02:21:19 10° WSW 02:21:21 10° WSW 02:21:21 10° WSW visible
02 Feb 2.1 00:29:29 10° SW 00:33:03 28° SSE 00:35:29 16° ESE visible
02 Feb 3.6 02:10:00 10° WSW 02:10:47 15° WSW 02:10:47 15° WSW visible
